Location: Atbuku
(36.4936°N, 30.4362°E)
Time: 21:13:44
(UTC+00:00)

IRS-P3 - Pass Details

Date: 20 March 2026
Orbit: 810 x 816 km, 99.0° (Epoch: 11 April)

Event Time Altitude Azimuth Distance (km) Brightness Sun altitude
Rises 03:34:10 0° 41° (NE) 3,337 8.1 -6.5°
Maximum altitude 03:39:52 10° 90° (E) 2,396 8.5 -5.3°
Drops below altitude 10° 03:39:54 10° 91° (E) 2,396 8.5 -5.3°
Sets 03:45:31 0° 139° (SE) 3,316 7.9 -4.2°
